This is the latest recevied weather packets stored in our database for station/object AG7BI. If no packets are shown the sender has not sent any weather packets the latest 10 day(s).
| Time | Temp. | Humidity | Pressure | Rain* | Wind** | Luminosity | Snow |
|---|---|---|---|---|---|---|---|
| 1777907752 | 13.33° C | 74% | 1010.9 hPa | 0 mm | - | - | - |
| 1777907452 | 13.33° C | 75% | 1011 hPa | 0 mm | - | - | - |
| 1777907152 | 13.33° C | 72% | 1010.8 hPa | 0 mm | - | - | - |
| 1777906852 | 13.33° C | 75% | 1010.9 hPa | 0 mm | - | - | - |
| 1777906552 | 13.33° C | 74% | 1010.7 hPa | 0 mm | - | - | - |
| 1777906252 | 12.78° C | 74% | 1010.8 hPa | 0 mm | - | - | - |
| 1777905952 | 12.22° C | 74% | 1010.8 hPa | 0 mm | - | - | - |
| 1777905652 | 11.67° C | 74% | 1011 hPa | 0 mm | - | - | - |
| 1777905352 | 11.67° C | 75% | 1010.8 hPa | 0 mm | - | - | - |
| 1777905052 | 11.67° C | 74% | 1010.6 hPa | 0 mm | - | - | - |
| 1777904752 | 11.11° C | 78% | 1010.9 hPa | 0 mm | - | - | - |
| 1777904452 | 11.11° C | 78% | 1010.6 hPa | 0 mm | - | - | - |
| 1777904152 | 11.11° C | 78% | 1010.5 hPa | 0 mm | - | - | - |
| 1777903852 | 11.11° C | 78% | 1010.4 hPa | 0 mm | - | - | - |
| 1777903552 | 10.56° C | 78% | 1010.6 hPa | 0 mm | - | - | - |
| 1777903252 | 10.56° C | 79% | 1010.6 hPa | 0 mm | - | - | - |
| 1777902952 | 10.56° C | 79% | 1010.4 hPa | 0 mm | - | - | - |
| 1777902652 | 10° C | 79% | 1010.5 hPa | 0 mm | - | - | - |
| 1777902352 | 10° C | 79% | 1010.3 hPa | 0 mm | - | - | - |
| 1777902052 | 10° C | 78% | 1010.4 hPa | 0 mm | - | - | - |
| 1777901752 | 10° C | 79% | 1010.2 hPa | 0 mm | - | - | - |
| 1777901452 | 10° C | 78% | 1010.2 hPa | 0 mm | - | - | - |
| 1777901152 | 10° C | 79% | 1010.4 hPa | 0 mm | - | - | - |
| 1777900852 | 9.44° C | 79% | 1010.3 hPa | 0 mm | - | - | - |
| 1777900552 | 9.44° C | 79% | 1010 hPa | 0 mm | - | - | - |
* Rain latest hour (hover to see other rain measurements)
** Current wind speed in m/s (hover to see current wind gust speed)